SCP
1 1 1 1 1 1 1 1 1 1 1 1 1 1 1 1 1 1 1 1 1 1 1 1 1 1 1 1 1 1 1 1 0 0 0 0 0 0 0 0 0 0 0
2 2 2 1 1 1 1 1 1 1 1 1 1 1 1 1 1 1 1 1 1 1 1 1 1 1 1 1 1 1 1 0 0 0 0 0 0 0 0 0 0 0 0
3 2 2 2 2 2 2 1 1 1 1 1 1 1 1 1 1 1 1 1 1 1 1 1 1 1 1 1 1 1 1 0 0 0 0 0 0 0 0 0 0 0 0
4 3 3 2 2 2 2 1 1 1 1 1 1 1 1 1 1 1 1 1 1 1 1 1 1 1 1 0 0 0 0 0 0 0 0 0 0 0 0 0 0 0 0
5 4 3 3 2 2 2 1 1 1 1 1 1 1 2 2 1 1 1 1 1 1 1 1 1 1 1 1 1 1 1 1 0 0 0 0 0 0 0 0 1 1 1
5 4 4 3 2 2 2 2 1 1 1 1 1 1 1 1 1 1 1 1 1 1 1 1 1 1 1 1 1 1 1 1 0 0 0 0 0 0 0 1 1 1 1
5 4 4 3 3 2 2 2 2 1 1 1 1 1 1 1 1 1 1 1 1 1 1 1 1 1 1 1 1 1 1 1 1 0 0 0 0 0 1 1 1 1 1
6 5 4 3 3 2 2 2 2 1 1 1 1 1 1 1 1 1 1 1 1 1 1 1 1 1 1 1 1 1 1 1 1 1 0 0 0 1 1 1 1 1 1
7 6 4 3 3 3 2 2 2 1 1 1 1 1 1 1 1 1 1 1 1 1 1 1 1 1 1 1 1 1 1 1 1 1 1 0 0 1 1 1 1 1 1
5 5 4 3 3 3 3 2 2 2 1 1 1 2 2 1 1 1 1 1 1 1 1 1 1 1 1 1 1 1 2 2 1 1 1 1 1 1 1 1 1 1 1
3 3 4 4 3 3 3 3 2 2 1 1 1 1 1 1 1 1 1 1 1 1 1 1 1 1 1 1 1 1 2 2 1 1 1 1 1 1 1 1 1 1 1
3 3 3 4 3 3 3 3 2 2 2 1 1 1 1 1 1 1 1 1 1 1 1 1 1 1 1 1 1 1 1 1 1 1 1 1 1 1 1 1 1 1 1
3 3 3 3 3 3 3 3 3 2 2 2 1 1 1 1 1 1 1 1 1 1 2 2 2 2 2 1 1 1 1 1 1 1 1 1 1 1 1 1 1 1 1
2 2 2 3 3 3 3 3 3 2 2 2 1 1 1 1 1 1 1 2 2 2 2 2 2 2 2 1 1 1 1 1 1 1 1 1 1 1 1 1 1 1 1
2 2 2 2 2 2 2 2 2 2 2 2 1 1 1 1 1 1 1 2 2 1 1 2 2 2 1 1 1 1 1 1 1 1 1 1 2 2 1 1 1 1 1
2 2 2 2 2 2 2 2 1 2 2 2 1 1 1 1 1 1 1 1 1 1 1 1 1 1 1 1 1 1 1 1 1 1 1 1 2 2 2 2 1 1 2
2 2 1 2 2 2 2 1 1 1 1 1 1 1 1 1 0 0 0 0 1 1 1 1 1 1 1 1 1 1 1 1 1 1 1 1 2 2 2 2 1 1 1
2 1 1 1 1 1 1 1 1 1 1 1 1 1 1 1 1 0 0 0 0 1 1 1 1 1 1 1 1 1 1 1 0 1 1 1 1 1 2 2 1 1 1
2 2 1 1 1 1 1 1 1 1 1 1 1 1 1 1 1 1 0 0 1 1 1 1 1 1 1 1 1 0 0 0 0 0 1 1 1 1 2 2 1 1 1
2 2 2 2 1 1 1 1 1 1 1 1 1 1 1 1 1 1 1 1 1 1 1 1 1 1 0 0 0 0 0 0 0 0 0 1 1 1 1 1 1 1 1
2 2 2 2 2 1 1 1 1 1 1 1 0 1 1 1 1 1 1 1 1 1 1 1 1 1 1 1 1 0 0 0 0 0 0 1 1 1 1 1 1 1 1
1 1 1 1 1 1 1 1 1 1 1 0 0 0 0 0 1 1 1 1 1 1 1 1 1 1 1 1 1 1 1 0 0 0 0 1 1 1 1 1 1 1 1
1 1 1 1 1 1 1 1 1 1 1 0 0 0 0 0 1 1 1 1 1 1 1 1 1 1 1 1 1 2 1 1 1 0 0 0 1 1 1 1 1 1 1
1 1 1 1 1 1 1 1 1 1 1 1 0 0 0 0 1 1 1 1 1 1 1 1 1 1 1 1 1 1 1 1 1 1 1 0 0 0 0 1 1 1 0
1 1 1 1 1 1 1 1 1 1 1 1 1 1 1 1 1 1 1 1 1 1 1 1 1 1 1 1 1 1 1 1 1 1 1 1 0 0 0 0 0 1 0
1 1 1 1 1 1 1 1 1 1 1 1 1 1 1 1 1 1 1 1 1 1 1 1 1 1 1 1 1 0 1 1 1 1 1 1 1 0 0 0 0 1 1
Wind_Speed
7 9 14 15 15 15 16 17 18 19 19 18 18 17 17 16 15 15 14 13 12 11 11 11 11 11 12 12 13 14 13 13 13 13 13 13 13 13 13 13 12 10 13
11 10 15 15 15 16 17 17 18 18 18 18 17 17 16 15 14 14 13 12 11 11 11 11 11 11 11 12 12 13 13 12 12 13 13 12 13 12 12 12 12 9 13
13 10 13 15 15 16 16 17 17 17 17 17 17 16 15 15 14 13 12 11 11 11 11 11 10 11 11 11 12 12 12 12 11 11 11 7 9 12 12 12 12 12 12
12 9 11 15 15 16 16 16 16 17 17 16 16 15 15 14 13 12 12 11 10 10 10 10 10 10 10 10 11 11 11 11 11 10 5 5 6 10 11 12 12 12 12
10 8 11 16 15 16 16 15 15 16 15 15 15 14 14 13 12 11 11 11 10 9 9 9 10 9 9 9 9 9 9 10 10 7 4 4 4 9 11 12 12 12 11
10 7 10 15 15 15 15 14 14 14 14 14 13 13 12 12 11 10 10 9 9 8 8 8 8 8 8 8 8 8 8 9 8 5 4 4 4 9 11 11 12 12 11
9 6 8 13 14 14 14 13 13 13 12 12 11 11 10 9 9 8 9 8 8 7 7 7 7 7 7 7 7 7 7 7 5 5 4 4 5 9 11 11 11 11 11
9 6 6 11 13 12 12 12 11 11 10 10 10 9 8 7 7 7 7 7 6 6 6 6 6 6 6 6 5 5 5 5 6 5 5 5 7 9 11 11 11 11 11
8 7 5 5 7 10 10 10 10 9 8 8 8 7 7 7 6 6 5 5 5 5 5 5 5 5 5 4 4 4 4 5 4 4 5 5 8 11 11 11 11 11 11
7 6 5 5 4 4 5 8 8 8 7 7 7 7 6 6 5 4 4 4 4 4 4 4 4 4 4 4 4 4 4 3 3 4 3 5 10 12 12 12 12 12 12
7 5 4 5 5 4 4 5 6 6 5 5 4 4 3 1 1 1 2 3 4 4 4 4 4 4 3 3 3 3 2 1 3 2 3 7 10 12 13 12 13 13 12
6 5 4 4 5 4 4 4 3 3 3 3 2 2 1 1 0 0 1 2 3 4 4 4 4 3 2 1 2 2 1 2 3 3 4 8 10 12 13 13 13 13 13
5 4 4 4 4 4 3 3 2 2 2 2 2 2 2 1 1 1 1 1 1 2 1 2 1 1 1 1 1 1 2 2 2 3 4 9 10 11 13 13 14 14 14
5 5 5 4 4 4 4 3 3 2 2 2 2 2 2 1 1 1 1 1 1 1 1 1 1 1 1 2 2 3 3 3 3 3 4 9 10 11 13 13 14 14 13
6 5 5 4 4 4 4 3 3 2 2 2 2 2 2 1 1 1 1 1 1 1 1 1 1 2 2 2 2 3 4 4 4 4 3 8 9 9 11 13 13 13 13
5 4 4 5 4 4 4 3 2 2 2 2 2 2 2 2 1 1 1 1 1 1 1 1 1 1 1 1 2 3 3 3 3 3 3 4 6 7 10 12 12 13 13
4 4 4 4 4 4 4 3 2 2 2 2 2 2 2 2 1 1 1 2 2 1 1 1 1 1 1 1 2 2 2 2 2 3 2 2 2 5 6 8 9 11 12
4 5 5 4 4 3 3 3 3 3 3 2 2 2 3 2 2 1 1 1 2 1 1 1 1 1 1 1 1 2 2 2 2 2 2 2 2 2 4 6 8 9 11
4 5 5 5 4 4 4 4 4 3 3 3 3 3 3 3 2 1 1 2 2 1 1 1 1 1 1 1 1 1 1 1 2 2 2 1 1 1 2 4 6 6 8
4 5 5 5 5 4 3 3 3 4 3 3 3 3 3 3 3 2 2 2 2 1 2 2 1 1 0 0 1 1 1 1 1 1 2 2 1 1 2 2 2 4 6
5 6 5 5 5 3 2 2 2 2 2 3 3 4 4 4 4 3 2 2 2 2 2 2 1 1 1 0 0 1 1 1 1 1 1 1 1 1 1 1 1 1 2
5 5 5 5 5 4 2 2 2 2 2 2 3 4 5 5 4 3 3 3 3 2 3 2 1 1 1 0 0 0 2 2 1 1 1 1 1 1 1 1 0 0 1
5 5 4 5 5 5 4 3 3 2 2 3 4 4 4 5 5 4 3 3 3 3 2 2 2 1 1 1 0 1 1 1 1 1 1 1 1 1 1 1 1 0 0
4 4 5 5 6 5 4 4 4 3 2 2 2 2 4 5 5 5 4 4 3 3 3 3 2 1 1 1 1 1 1 1 1 1 1 1 2 1 1 1 1 1 1
4 4 5 5 6 5 5 5 4 3 2 1 2 3 4 5 5 5 5 4 3 3 3 3 3 2 1 1 1 1 1 1 1 1 1 1 2 2 2 2 2 2 2
5 5 5 6 6 5 5 5 4 4 3 3 3 4 3 3 4 6 5 4 4 3 3 3 3 3 2 1 1 1 1 1 1 1 2 1 1 2 2 2 2 2 2
Wind_Direction
134 137 137 133 126 118 112 109 108 108 109 112 114 117 120 122 124 125 126 125 121 116 112 109 108 108 109 112 115 117 119 121 122 124 124 123 122 122 121 118 116 115 117
134 137 136 133 127 121 116 112 111 110 110 111 113 116 119 121 122 124 125 124 122 120 117 115 114 114 115 117 119 122 125 126 128 129 129 128 127 126 125 121 121 122 121
129 133 134 132 127 122 118 115 114 113 113 114 115 117 119 121 122 124 124 123 121 121 121 120 120 119 120 121 124 128 130 130 130 129 124 123 130 133 132 131 129 126 125
126 128 134 132 127 124 121 119 118 118 118 118 119 121 123 124 124 126 126 124 122 122 122 122 123 124 125 127 130 131 132 131 129 123 114 128 137 142 140 139 137 133 130
119 124 138 133 129 126 124 123 122 122 123 123 124 126 128 128 127 128 128 126 125 125 126 126 126 128 132 133 135 137 137 137 135 126 121 124 130 147 147 146 144 140 138
118 126 137 132 130 129 128 127 127 127 128 128 129 130 131 131 130 129 129 129 129 129 129 130 129 131 136 139 144 149 151 150 137 134 137 145 151 158 157 154 150 147 144
114 117 132 131 132 133 133 132 131 131 131 132 132 133 132 132 132 133 134 134 135 136 137 137 136 138 143 147 151 155 160 159 145 152 160 167 176 173 169 165 158 155 153
118 113 120 132 134 135 136 135 135 134 135 136 138 138 136 135 135 138 140 142 143 142 141 142 143 148 152 156 160 162 169 170 158 168 174 183 191 183 176 172 168 165 163
114 111 103 114 127 134 136 136 136 136 137 137 138 141 144 147 150 153 154 152 151 155 156 156 160 163 166 173 179 183 189 182 161 178 188 190 200 193 185 179 176 173 172
101 98 96 96 99 108 121 134 137 138 140 141 145 149 153 158 164 170 165 172 176 181 182 180 182 183 185 193 202 203 198 171 170 185 190 198 202 199 194 186 183 181 179
106 101 101 106 103 103 110 119 121 127 128 130 134 143 142 119 130 166 190 203 207 208 208 206 209 206 207 217 224 218 200 176 184 199 200 209 205 204 198 193 189 187 186
114 104 98 105 108 106 115 106 99 103 99 92 83 89 83 79 60 144 289 249 237 231 229 228 228 219 210 205 248 244 197 202 201 215 220 220 214 211 204 199 195 193 193
105 93 81 83 91 96 94 100 92 88 91 86 78 79 84 74 42 21 0 317 307 277 271 275 276 240 200 205 220 227 220 214 217 226 231 228 222 217 210 205 201 199 198
84 72 72 78 82 81 87 91 90 89 87 83 69 65 77 76 56 18 9 337 344 337 302 298 280 261 248 241 231 228 229 227 225 226 233 233 228 224 219 212 207 203 202
72 59 54 66 74 74 76 75 76 74 80 80 67 58 72 78 41 3 7 358 347 339 323 293 280 271 269 268 249 234 231 230 232 227 234 237 236 233 228 220 213 208 207
68 59 54 62 68 76 78 77 72 69 72 70 54 41 52 57 44 18 346 341 339 328 312 278 268 269 263 258 261 252 250 239 237 233 232 242 245 243 236 224 218 213 211
67 53 49 66 63 81 89 90 89 78 72 63 41 33 40 45 38 27 6 348 332 329 330 319 317 312 286 273 272 267 260 256 246 238 233 234 242 243 235 224 221 217 213
79 64 48 57 62 66 75 81 78 72 71 59 39 30 25 26 28 31 9 336 330 336 341 319 326 312 296 288 294 303 302 294 277 257 240 237 237 238 238 233 226 220 214
71 73 62 55 52 57 69 76 69 63 57 47 37 32 17 14 16 25 360 341 339 334 339 318 336 276 257 281 295 305 310 301 300 297 283 271 252 240 242 240 230 227 223
64 65 64 57 48 49 62 70 66 58 47 43 35 25 20 15 18 20 19 0 6 9 357 343 323 326 269 315 325 326 315 299 312 308 298 297 284 262 254 254 238 234 231
66 62 55 53 44 47 51 62 63 48 30 34 36 30 24 20 22 28 16 16 20 14 353 349 337 340 350 30 14 335 327 314 318 319 308 314 307 283 269 259 247 242 243
63 61 62 56 51 48 51 59 76 71 49 47 33 30 21 16 18 24 22 17 15 11 11 12 11 332 320 15 68 343 322 335 345 337 337 327 311 324 328 314 287 243 238
65 59 65 57 55 50 53 67 67 52 31 25 18 15 7 10 17 21 19 22 16 14 357 348 358 355 299 299 43 168 218 261 322 343 357 7 1 2 339 342 354 358 359
71 67 65 62 58 51 52 63 69 70 49 13 2 360 359 14 18 17 18 20 12 8 1 349 354 345 330 288 302 288 242 208 229 310 339 1 4 0 353 354 5 42 36
72 68 67 68 60 53 56 61 68 67 49 19 17 17 10 9 16 16 16 16 12 7 1 359 356 356 343 305 265 257 249 244 222 224 277 331 4 9 2 16 30 39 38
76 67 66 68 57 49 55 60 68 72 63 43 25 19 7 1 5 11 9 9 7 4 356 349 351 354 346 328 306 270 239 231 213 211 230 256 335 359 10 25 31 32 40